Weather History for Volk, WI

Change the Weather History Date:

Saturday, June 21, 2014

  Actual Average Record
Temperature  
Mean Temperature 69 °F -  
Max Temperature 81 °F 76 °F 87 °F (2005)
Min Temperature 57 °F 61 °F 51 °F (2008)
Cooling Degree Days 4    
Growing Degree Days 19 (Base 50)    
Moisture  
Dew Point 68 °F    
Average Humidity 91    
Maximum Humidity 100    
Minimum Humidity 61    
Precipitation  
Precipitation 0.00 in - - ()
Sea Level Pressure  
Sea Level Pressure 29.90 in    
Wind  
Wind Speed 6 mph (South)    
Max Wind Speed 12 mph    
Max Gust Speed -    
Visibility 9 miles    
Events Rain    
Averages and records for this station are not official NWS values.
T = Trace of Precipitation, MM = Missing Value Source: NWS Daily Summary

Daily Weather History Graph

Daily Weather History Graph

Search for Another Location

Airport:

Trip Planner

Search our weather history database for the weather conditions in past years. The results will help you decide how hot, cold, wet, or windy it might be!

Date:

Astronomy

Jun. 21, 2014 Rise Set
Actual Time 5:18 AM CDT 8:47 PM CDT
Civil Twilight 4:42 AM CDT 9:23 PM CDT
Nautical Twilight 3:54 AM CDT 10:11 PM CDT
Astronomical Twilight 2:53 AM CDT 11:12 PM CDT
Moon 1:41 AM CDT (6/21) 3:17 PM CDT (6/21)
Length of Visible Light 16h 41m
Length of Day
15h 28m
Waning Crescent, 30% of the Moon is Illuminated
Jun 21
Waning Crescent
Jun 27
New
Jul 5
First Quarter
Jul 12
Full
Jul 18
Last Quarter

Hourly Weather History & Observations

Time (CDT) Temp. Heat Index Dew Point Humidity Pressure Visibility Wind Dir Wind Speed Gust Speed Precip Events Conditions
12:18 AM 69.8 °F - 69.8 °F 100% 29.93 in 10.0 mi SE 11.5 mph - N/A   Overcast
12:58 AM 69.1 °F - 69.1 °F 100% 29.93 in 8.0 mi ESE 8.1 mph - N/A   Overcast
1:58 AM 68.5 °F - 68.5 °F 100% 29.93 in 7.0 mi SE 5.8 mph - N/A   Overcast
2:03 AM 68.0 °F - 68.0 °F 100% 29.93 in 7.0 mi Variable 4.6 mph - N/A   Overcast
2:43 AM 68.0 °F - 68.0 °F 100% 29.94 in 6.0 mi SE 5.8 mph - N/A   Overcast
2:58 AM 68.5 °F - 68.5 °F 100% 29.94 in 6.0 mi SE 4.6 mph - N/A   Overcast
3:33 AM 68.0 °F - 68.0 °F 100% 29.94 in 7.0 mi SE 4.6 mph - N/A   Scattered Clouds
3:58 AM 68.0 °F - 68.0 °F 100% 29.93 in 7.0 mi SE 4.6 mph - N/A   Clear
4:58 AM 67.5 °F - 67.5 °F 100% 29.91 in 9.0 mi Variable 5.8 mph - N/A   Partly Cloudy
5:48 AM 66.2 °F - 66.2 °F 100% 29.89 in 7.0 mi Variable 2.3 mph - N/A   Partly Cloudy
5:58 AM 66.6 °F - 66.6 °F 100% 29.88 in 7.0 mi ESE 5.8 mph - N/A   Scattered Clouds
6:03 AM 66.2 °F - 66.2 °F 100% 29.89 in 7.0 mi ESE 2.3 mph - N/A   Mostly Cloudy
6:18 AM 66.2 °F - 66.2 °F 100% 29.90 in 7.0 mi ESE 4.6 mph - N/A   Overcast
6:38 AM 66.2 °F - 66.2 °F 100% 29.91 in 8.0 mi ESE 4.6 mph - N/A   Overcast
6:53 AM 66.2 °F - 66.2 °F 100% 29.91 in 9.0 mi ESE 3.5 mph - N/A   Scattered Clouds
6:58 AM 66.9 °F - 66.9 °F 100% 29.92 in 9.0 mi Calm Calm - N/A   Partly Cloudy
7:58 AM 69.3 °F - 69.3 °F 100% 29.92 in 10.0 mi Variable 5.8 mph - N/A   Clear
8:58 AM 73.0 °F - 70.7 °F 92% 29.90 in 10.0 mi Variable 1.2 mph - N/A   Clear
9:58 AM 76.3 °F - 69.8 °F 80% 29.90 in 10.0 mi NNW 5.8 mph - N/A   Clear
10:58 AM 75.6 °F - 70.3 °F 84% 29.92 in 10.0 mi SSE 6.9 mph - N/A   Partly Cloudy
11:58 AM 75.7 °F - 70.2 °F 83% 29.92 in 10.0 mi SW 3.5 mph - N/A   Clear
12:58 PM 74.3 °F - 72.5 °F 94% 29.87 in 10.0 mi ESE 3.5 mph - 0.00 in   Clear
1:42 PM 75.2 °F - 73.4 °F 94% 29.91 in 10.0 mi South 5.8 mph - N/A Rain Light Rain
1:58 PM 74.7 °F - 73.9 °F 98% 29.90 in 10.0 mi SSW 3.5 mph - 0.00 in Rain Light Rain
2:04 PM 75.2 °F - 75.2 °F 100% 29.90 in 10.0 mi SW 3.5 mph - N/A   Scattered Clouds
2:44 PM 77.0 °F - 73.4 °F 89% 29.90 in 10.0 mi SSW 11.5 mph - N/A   Mostly Cloudy
2:58 PM 77.7 °F - 73.6 °F 87% 29.90 in 10.0 mi SSW 11.5 mph - 0.00 in   Mostly Cloudy
3:23 PM 78.8 °F - 71.6 °F 78% 29.90 in 10.0 mi South 6.9 mph - N/A   Mostly Cloudy
3:33 PM 80.6 °F 84.6 °F 71.6 °F 74% 29.90 in 10.0 mi SSW 6.9 mph - N/A   Scattered Clouds
3:58 PM 80.1 °F 83.2 °F 70.0 °F 71% 29.88 in 10.0 mi SSW 10.4 mph - N/A   Partly Cloudy
4:58 PM 80.4 °F 83.2 °F 68.7 °F 67% 29.88 in 10.0 mi WSW 10.4 mph - N/A   Partly Cloudy
5:58 PM 80.8 °F 83.2 °F 67.3 °F 63% 29.87 in 10.0 mi WSW 9.2 mph - N/A   Clear
6:58 PM 79.7 °F - 65.3 °F 61% 29.86 in 10.0 mi West 8.1 mph - N/A   Clear
7:58 PM 75.4 °F - 66.7 °F 74% 29.86 in 10.0 mi WNW 5.8 mph - N/A   Clear
8:58 PM 67.8 °F - 63.3 °F 85% 29.88 in 10.0 mi WSW 3.5 mph - N/A   Clear
9:58 PM 63.0 °F - 62.8 °F 99% 29.90 in 10.0 mi NNE 2.3 mph - N/A   Clear
10:58 PM 58.3 °F - 58.3 °F 100% 29.91 in 10.0 mi SSW 2.3 mph - N/A   Clear
11:58 PM 57.6 °F - 57.6 °F 100% 29.91 in 10.0 mi SSW 1.2 mph - N/A   Clear